Location: Grantham
(50.0698°N, 112.0083°W)
Time: 05:22:45
(UTC+00:00)

ISS - Pass Details

Date: 05 December 2021
Orbit: 413 x 423 km, 51.6° (Epoch: 20 January)

Event Time Altitude Azimuth Distance (km) Brightness Sun altitude
Rises 02:14:16 0° 284° (WNW) 2,381 1.2 -25.8°
Reaches altitude 10° 02:16:45 10° 267° (W) 1,510 0.1 -26.2°
Enters shadow 02:19:03 20° 224° (SW) 1,052 -1.3 -26.5°
